Location: ????????
(55.3155°N, 39.2900°E)
Time: 10:20:36
(UTC+00:00)

Cosmos 1420 Rocket - Pass Details

Date: 14 April 2024
Orbit: 752 x 779 km, 74.0° (Epoch: 27 May)

Event Time Altitude Azimuth Distance (km) Brightness Sun altitude
Rises 00:28:29 0° 332° (NNW) 3,236 7.4 -14.6°
Reaches altitude 10° 00:30:52 10° 333° (NNW) 2,310 6.7 -14.3°
Maximum altitude 00:36:07 86° 62° (ENE) 778 4.0 -13.8°
Drops below altitude 10° 00:41:24 10° 152° (SSE) 2,313 6.4 -13.2°
Sets 00:43:46 0° 153° (SSE) 3,240 7.1 -12.9°
